Regional Weather Roundup
Issued by NWS

Home | Current Version | Previous Version | Graphics & Text | Print | Product List | Glossary Off
Versions: 1 2 3 4 5 6 7 8 9 10 11 12 13 14 15 16 17 18 19 20 21 22 23 24 25 26 27 28 29 30 31 32 33 34 35 36 37 38 39 40 41 42 43 44 45 46 47 48 49 50

000
ASUS43 KMKX 200111
RWRWI

WISCONSIN REGIONAL WEATHER ROUNDUP
NATIONAL WEATHER SERVICE MILWAUKEE/SULLIVAN WI
800 PM CDT SUN OCT 19 2014

NOTE: "FAIR" INDICATES FEW OR NO CLOUDS BELOW 12,000 FEET WITH NO
SIGNIFICANT WEATHER AND/OR OBSTRUCTIONS TO VISIBILITY.

WIZ001-002-006>008-014>016-023>028-200200-
NORTHWEST WISCONSIN

CITY           SKY/WX    TMP DP  RH WIND       PRES   REMARKS
SUPERIOR ARPT  FAIR      56  44  63 NW9       29.76R
ASHLAND        PTCLDY    47  42  83 SW6       29.75S
HAYWARD        CLEAR     46  41  82 CALM      29.77S
SIREN          PTCLDY    47  43  85 CALM      29.77S
CUMBERLAND     CLEAR     48  41  76 CALM      29.78S
RICE LAKE      CLEAR     47  42  84 CALM      29.79S
CHETEK         CLEAR     46  44  90 CALM      29.78S
LADYSMITH      CLEAR     43  39  86 CALM      29.79F
EAU CLAIRE     CLEAR     50  44  80 CALM      29.78S
MENOMONIE      CLEAR     51  44  76 E3        29.78S
NEW RICHMOND   CLEAR     47  43  84 CALM      29.79R
OSCEOLA        CLEAR     54  44  69 W5        29.80S
$$

WIZ003>005-009-010-017-018-200200-
NORTH CENTRAL WISCONSIN

CITY           SKY/WX    TMP DP  RH WIND       PRES   REMARKS
MANITOWISH WTR PTCLDY    45  42  89 CALM      29.76F
ARBOR VITAE    CLEAR     44  42  92 S3        29.77F
WOODRUFF       CLEAR     44  42  92 S3        29.77F
RHINELANDER    CLEAR     47  42  83 SW7       29.79S
EAGLE RIVER    PTCLDY    45  40  82 SW5       29.76F
LAND O LAKES   PTCLDY    47  42  82 CALM      29.77S
PHILLIPS       CLEAR     45  41  88 CALM      29.77F
TOMAHAWK       CLEAR     45  41  86 CALM      29.79F
MEDFORD        CLEAR     43  41  92 CALM      29.79F
MERRILL        CLEAR     42  41  96 CALM      29.79F
$$

WIZ029-030-035-036-043>047-200200-
CENTRAL WISCONSIN

CITY           SKY/WX    TMP DP  RH WIND       PRES   REMARKS
WAUSAU         PTCLDY    47  43  86 S3        29.79S
MOSINEE        NOT AVBL
MARSHFIELD     PTCLDY    50  43  77 SW7       29.80S
STEVENS POINT  PTCLDY    50  43  77 SW6       29.81S
WAUPACA        PTCLDY    54  45  72 SW9       29.82S
WAUTOMA        CLOUDY    54  43  66 S8        29.83F
WISC RAPIDS    PTCLDY    53  44  71 S6        29.82F
CAMP DOUGLAS   PTCLDY    56  46  69 S5        29.82F
$$

WIZ011>013-019>022-031-037>040-048>050-200200-
NORTHEAST WISCONSIN

CITY           SKY/WX    TMP DP  RH WIND       PRES   REMARKS
ANTIGO         MOCLDY    44  41  90 CALM      29.80F
SHAWANO        PTCLDY    52  43  70 SW3       29.81R
OCONTO         CLOUDY    52  42  71 SW5       29.81S
STURGEON BAY   CLOUDY    50  41  71 S7        29.83S
GREEN BAY      MOCLDY    52  43  71 SW10      29.82F
MANITOWOC      LGT RAIN  51  44  77 S9        29.85F
APPLETON       MOCLDY    50  43  76 NW17      29.84S
CLINTONVILLE   PTCLDY    50  43  76 SW5       29.81S
OSHKOSH        MOCLDY    53  43  68 S10       29.83F
$$

WIZ032>034-041-042-053>061-200200-
SOUTHWEST WISCONSIN

CITY           SKY/WX    TMP DP  RH WIND       PRES   REMARKS
LA CROSSE      CLEAR     58  46  64 S10       29.81F
SPARTA         PTCLDY    55  43  63 CALM      29.83F
VIROQUA        CLEAR     53  45  74 SW10      29.84F
BOSCOBEL       PTCLDY    55  43  63 SW8       29.87F
PRAIRIE DU CHI PTCLDY    57  42  59 CALM      29.87S
PLATTEVILLE    PTCLDY    51  43  75 CALM      29.91R
$$

WIZ056-057-062-063-064-067-068-200200-
SOUTH CENTRAL WISCONSIN

CITY           SKY/WX    TMP DP  RH WIND       PRES   REMARKS
REEDSBURG      PTCLDY    53  44  71 S7        29.85F
BARABOO/DELLS  PTCLDY    53  41  65 SW9       29.85F
LONE ROCK      PTCLDY    56  43  61 SW6       29.87F
MINERAL POINT  PTCLDY    52  43  71 S7        29.89S
MADISON        LGT RAIN  54  43  66 S8        29.89F
MIDDLETON      CLOUDY    54  41  62 SW6       29.88F
WATERTOWN      PTCLDY    48  41  76 CALM      29.89S
MONROE         CLEAR     52  43  71 SW12      29.90F
JANESVILLE     PTCLDY    54  39  58 SW6       29.91S
$$

WIZ051-052-058>065-066-070>072-200200-
SOUTHEAST WISCONSIN

CITY           SKY/WX    TMP DP  RH WIND       PRES   REMARKS
MILWAUKEE      PTCLDY    51  41  68 SW14      29.90F
WAUKESHA       CLEAR     48  41  76 SW12      29.91S
MILWAUKEE/TIMM NOT AVBL
RACINE         PTCLDY    51  41  68 S13       29.92F
BURLINGTON     CLEAR     48  40  75 SW6       29.91F
KENOSHA        PTCLDY    50  42  74 S12       29.91F
FOND DU LAC    MOCLDY    52  40  63 SW13      29.85F
SHEBOYGAN      MOCLDY    53  40  61 SW14      29.86F
WEST BEND      CLOUDY    52  37  58 SW9       29.88S
JUNEAU         PTCLDY    49  41  73 S10       29.89F
$$

LSZ147-162-200200-
LAKE SUPERIOR

STATION/POSITION TIME  TEMP    WIND        PRES    WAVE
                       AIR SEA DIR/SP/G            HT/PER
                 (UTC) (F)     (DEG/KT/KT) (MB)    (FT/S)
W MID LAKE BUOY  0050   47 46   60/  2/  2 1007.2S   1/ 4
DEVILS ISLAND    0100   56     250/  8/ 10 1007.0R
PORT WING        0000   58     180/  5/  5 1006.8S
SAXON HARBOR     0000   49        CALM     1007.1
$$

LMZ867-665-643>646-200200-
LAKE MICHIGAN

STATION/POSITION TIME  TEMP    WIND        PRES    WAVE
                       AIR SEA DIR/SP/G            HT/PER
                 (UTC) (F)     (DEG/KT/KT) (MB)    (FT/S)
CHAMBERS ISLAND  0000   51     160/  5/ 10 1009.8F
N MID LAKE BUOY  0050   51 51  200/ 23/ 29 1009.8F   8/ 7
NORTHPORT PIER   0000   51     170/  7/ 12 1009.8F
SISTER BAY       2313          190/ 13/ 18   N/A
KEWAUNEE LAKESHO 0000   51     190/  7/  9 1009.9R
SHEBOYGAN LAKESH 0100   53 50  200/ 12/ 14 1011.8F
PORT WASHINGTON  0000   54     250/  6/ 13 1012.9S
ATWATER BUOY     0100   53     200/ 12/ 14 1013.4F
MILWAUKEE LAKESH 0000   54     210/ 16/ 18   N/A
S MID LAKE BUOY  0050   54 55  200/ 21/ 25 1013.5F   5/ 5
KENOSHA   LAKESH 0100   52     190/ 10/ 13 1012.9F
$$

TC  - TEMPERATURE IN CELSIUS
VSB - VISIBILITY IN STATUTE MILES
WCI - WIND CHILL INDEX
HX  - HEAT INDEX




USA.gov is the U.S. government's official web portal to all federal, state and local government web resources and services.